Weather History for Carmi, IL

Change the Weather History Date:

Wednesday, July 31, 2013

  Actual Average (KEVV) Record (KEVV)
Temperature  
Mean Temperature 76 °F 78 °F  
Max Temperature 84 °F 88 °F 102 °F (1935)
Min Temperature 70 °F 67 °F 52 °F (1971)
Degree Days  
Heating Degree Days 0 0  
Month to date heating degree days 0  
Since 1 June heating degree days 6  
Since 1 July heating degree days 0  
Cooling Degree Days 12 13  
Month to date cooling degree days 403  
Year to date cooling degree days 836  
Since 1 June cooling degree days 701  
Growing Degree Days 26 (Base 50)    
Moisture  
Dew Point 70 °F    
Average Humidity 85    
Maximum Humidity 95    
Minimum Humidity 63    
Precipitation  
Precipitation 0.03 in 0.11 in 3.12 in (1950)
Month to date precipitation 3.92  
Year to date precipitation 27.94  
Snow  
Snow 0.00 in 0.00 in - ()
Month to date snowfall 0.0  
Since 1 June snowfall 0.0  
Since 1 July snowfall 0.0  
Snow Depth -    
Sea Level Pressure  
Sea Level Pressure 30.01 in    
Wind  
Wind Speed 4 mph (ENE)    
Max Wind Speed 8 mph    
Max Gust Speed -    
Visibility 7 miles    
Events Rain    
T = Trace of Precipitation, MM = Missing Value Source: NWS Daily Summary

Daily Weather History Graph

Daily Weather History Graph

Search for Another Location

Airport:

Trip Planner

Search our weather history database for the weather conditions in past years. The results will help you decide how hot, cold, wet, or windy it might be!

Date:

Astronomy

Jul. 31, 2013 Rise Set
Actual Time 5:54 AM CDT 8:02 PM CDT
Civil Twilight 5:25 AM CDT 8:31 PM CDT
Nautical Twilight 4:49 AM CDT 9:07 PM CDT
Astronomical Twilight 4:10 AM CDT 9:46 PM CDT
Moon 12:49 AM CDT (7/31) 3:18 PM CDT (7/31)
Length of Visible Light 15h 06m
Length of Day
14h 07m
Waning Crescent, 31% of the Moon is Illuminated
Jul 31
Waning Crescent
Aug 6
New
Aug 14
First Quarter
Aug 20
Full
Aug 28
Last Quarter

Hourly Weather History & Observations

Time (CDT) Temp. Heat Index Dew Point Humidity Pressure Visibility Wind Dir Wind Speed Gust Speed Precip Events Conditions
12:15 AM 70.7 °F - 69.1 °F 95% 30.06 in 4.0 mi SE 4.6 mph - N/A   Overcast
12:35 AM 70.7 °F - 69.1 °F 95% 30.06 in 4.0 mi SE 5.8 mph - N/A   Overcast
12:55 AM 70.7 °F - 68.9 °F 94% 30.05 in 5.0 mi ESE 6.9 mph - N/A   Overcast
1:15 AM 70.7 °F - 68.9 °F 94% 30.04 in 7.0 mi ESE 8.1 mph - N/A   Overcast
1:35 AM 70.7 °F - 68.9 °F 94% 30.04 in 5.0 mi SE 4.6 mph - N/A   Overcast
2:15 AM 70.7 °F - 68.9 °F 94% 30.03 in 5.0 mi SE 3.5 mph - N/A   Overcast
2:35 AM 70.7 °F - 68.9 °F 94% 30.03 in 2.0 mi SE 4.6 mph - N/A Rain Light Rain
2:55 AM 70.7 °F - 69.1 °F 95% 30.03 in 2.5 mi SE 4.6 mph - N/A Rain Light Rain
3:15 AM 70.7 °F - 68.9 °F 94% 30.02 in 4.0 mi SE 4.6 mph - 0.01 in   Light Drizzle
3:35 AM 70.7 °F - 68.9 °F 94% 30.02 in 4.0 mi SSE 5.8 mph - 0.01 in   Drizzle
3:55 AM 70.3 °F - 68.9 °F 95% 30.02 in 2.5 mi SE 4.6 mph - 0.02 in   Light Drizzle
4:15 AM 70.3 °F - 68.9 °F 95% 30.02 in 3.0 mi SSE 4.6 mph - N/A   Overcast
4:35 AM 70.2 °F - 68.7 °F 95% 30.01 in 4.0 mi SE 3.5 mph - N/A   Overcast
4:55 AM 70.2 °F - 68.7 °F 95% 30.02 in 4.0 mi Calm Calm - N/A   Overcast
5:15 AM 70.3 °F - 68.9 °F 95% 30.02 in 3.0 mi Calm Calm - N/A   Overcast
5:35 AM 70.3 °F - 68.9 °F 95% 30.02 in 4.0 mi SE 3.5 mph - N/A   Overcast
5:55 AM 70.3 °F - 68.9 °F 95% 30.02 in 3.0 mi SE 3.5 mph - N/A   Overcast
6:15 AM 70.3 °F - 68.9 °F 95% 30.02 in 3.0 mi ESE 3.5 mph - N/A   Overcast
6:35 AM 70.3 °F - 68.9 °F 95% 30.03 in 3.0 mi ESE 3.5 mph - N/A   Overcast
6:55 AM 70.5 °F - 68.9 °F 95% 30.03 in 2.5 mi Calm Calm - N/A   Overcast
7:15 AM 70.7 °F - 69.1 °F 95% 30.02 in 2.5 mi Calm Calm - 0.01 in   Overcast
7:35 AM 70.7 °F - 69.1 °F 95% 30.03 in 1.5 mi Calm Calm - 0.01 in   Overcast
7:55 AM 70.9 °F - 69.1 °F 94% 30.03 in 3.0 mi Calm Calm - 0.01 in   Overcast
8:15 AM 70.9 °F - 69.3 °F 95% 30.03 in 2.5 mi SE 3.5 mph - N/A   Overcast
8:35 AM 71.1 °F - 69.3 °F 94% 30.04 in 2.5 mi ESE 3.5 mph - N/A   Overcast
8:55 AM 71.6 °F - 69.8 °F 94% 30.04 in 2.5 mi ESE 4.6 mph - N/A   Overcast
9:15 AM 71.6 °F - 69.6 °F 93% 30.03 in 2.0 mi ESE 5.8 mph - N/A   Overcast
9:35 AM 71.8 °F - 69.8 °F 93% 30.03 in 2.5 mi East 4.6 mph - N/A   Overcast
9:55 AM 72.0 °F - 70.0 °F 93% 30.02 in 2.5 mi ESE 4.6 mph - N/A   Overcast
10:15 AM 72.0 °F - 69.8 °F 93% 30.02 in 3.0 mi ESE 3.5 mph - N/A   Overcast
10:35 AM 72.5 °F - 70.0 °F 92% 30.03 in 3.0 mi Calm Calm - N/A   Overcast
10:55 AM 72.7 °F - 70.2 °F 92% 30.03 in 3.0 mi Calm Calm - N/A   Overcast
11:15 AM 74.3 °F - 70.7 °F 88% 30.03 in 7.0 mi North 3.5 mph - N/A   Overcast
11:35 AM 74.3 °F - 70.5 °F 88% 30.03 in 7.0 mi Calm Calm - N/A   Overcast
11:55 AM 74.5 °F - 70.7 °F 88% 30.03 in 7.0 mi Calm Calm - N/A   Overcast
12:15 PM 75.2 °F - 70.2 °F 84% 30.03 in 10.0 mi NNW 4.6 mph - N/A   Overcast
12:35 PM 75.2 °F - 70.7 °F 86% 30.03 in 7.0 mi North 3.5 mph - N/A   Overcast
12:55 PM 76.5 °F - 71.1 °F 83% 30.02 in 7.0 mi Calm Calm - N/A   Overcast
1:15 PM 77.0 °F - 70.3 °F 80% 30.02 in 10.0 mi Calm Calm - N/A   Overcast
1:35 PM 77.0 °F - 70.7 °F 81% 30.02 in 10.0 mi NE 3.5 mph - N/A   Overcast
1:55 PM 78.8 °F - 71.1 °F 77% 30.01 in 10.0 mi Calm Calm - N/A   Overcast
2:15 PM 78.1 °F - 70.3 °F 77% 30.01 in 10.0 mi Calm Calm - N/A   Mostly Cloudy
2:35 PM 79.5 °F - 71.4 °F 76% 30.00 in 10.0 mi West 3.5 mph - N/A   Overcast
2:55 PM 81.5 °F 86.1 °F 72.0 °F 73% 30.00 in 10.0 mi Calm Calm - N/A   Overcast
3:15 PM 80.8 °F 84.7 °F 71.2 °F 73% 30.00 in 10.0 mi Calm Calm - N/A   Overcast
3:35 PM 81.1 °F 85.2 °F 71.2 °F 72% 29.99 in 10.0 mi NNE 4.6 mph - N/A   Overcast
3:55 PM 82.6 °F 87.1 °F 71.1 °F 68% 29.99 in 10.0 mi NNW 4.6 mph - N/A   Mostly Cloudy
4:15 PM 82.6 °F 86.6 °F 70.0 °F 66% 29.98 in 10.0 mi NW 3.5 mph - N/A   Mostly Cloudy
4:35 PM 83.5 °F 87.7 °F 70.2 °F 64% 29.97 in 10.0 mi NNW 5.8 mph - N/A   Scattered Clouds
4:55 PM 82.6 °F 86.6 °F 70.2 °F 66% 29.97 in 10.0 mi North 6.9 mph - N/A   Scattered Clouds
5:15 PM 83.5 °F 87.7 °F 70.3 °F 64% 29.96 in 10.0 mi North 6.9 mph - N/A   Scattered Clouds
5:35 PM 83.5 °F 87.4 °F 69.8 °F 63% 29.95 in 10.0 mi North 4.6 mph - N/A   Scattered Clouds
5:55 PM 82.9 °F 87.2 °F 70.5 °F 66% 29.95 in 10.0 mi North 5.8 mph - N/A   Scattered Clouds
6:15 PM 82.0 °F 86.1 °F 70.7 °F 68% 29.95 in 10.0 mi North 3.5 mph - N/A   Scattered Clouds
6:35 PM 82.2 °F 86.0 °F 70.0 °F 66% 29.95 in 10.0 mi Calm Calm - N/A   Scattered Clouds
6:55 PM 81.3 °F 85.4 °F 71.1 °F 71% 29.96 in 10.0 mi Calm Calm - N/A   Mostly Cloudy
7:15 PM 80.6 °F 85.0 °F 72.7 °F 77% 29.96 in 10.0 mi Calm Calm - N/A   Scattered Clouds
7:35 PM 79.5 °F - 72.3 °F 79% 29.97 in 10.0 mi Calm Calm - N/A   Mostly Cloudy
7:55 PM 78.1 °F - 72.1 °F 82% 29.97 in 10.0 mi Calm Calm - N/A   Mostly Cloudy
8:15 PM 77.0 °F - 72.5 °F 86% 29.97 in 10.0 mi ESE 3.5 mph - N/A   Mostly Cloudy
8:35 PM 75.9 °F - 72.3 °F 89% 29.97 in 7.0 mi Calm Calm - N/A   Mostly Cloudy
8:55 PM 76.6 °F - 72.7 °F 87% 29.98 in 5.0 mi Calm Calm - N/A   Mostly Cloudy
9:15 PM 78.1 °F - 71.4 °F 80% 29.99 in 10.0 mi WNW 6.9 mph - N/A   Overcast
9:35 PM 77.0 °F - 70.0 °F 79% 30.00 in 10.0 mi NW 6.9 mph - N/A   Mostly Cloudy
9:55 PM 76.1 °F - 69.8 °F 81% 30.00 in 10.0 mi NW 6.9 mph - N/A   Mostly Cloudy
10:15 PM 75.2 °F - 69.4 °F 82% 30.00 in 10.0 mi NW 5.8 mph - N/A   Mostly Cloudy
10:35 PM 74.1 °F - 69.1 °F 84% 30.00 in 10.0 mi NW 5.8 mph - N/A   Clear
10:55 PM 73.6 °F - 68.9 °F 85% 30.00 in 10.0 mi NW 5.8 mph - N/A   Scattered Clouds
11:15 PM 72.9 °F - 68.5 °F 86% 30.00 in 10.0 mi NW 5.8 mph - N/A   Clear
11:35 PM 72.0 °F - 68.4 °F 88% 30.00 in 10.0 mi NW 4.6 mph - N/A   Clear
11:55 PM 71.4 °F - 68.0 °F 89% 30.00 in 10.0 mi NW 4.6 mph - N/A   Clear